period_start,C,m1,H,J0,J1,J2,J3,J4,J5,JA,JB,JC,JD,JJ,JK,JN,#
2015-09-12 00:01:14,0.03,0.20,0.00,23.68,28.30,31.00,14.25,49.25,998.09,2035.96,3357.99,3195.03,3474.88,600.08,583.93,8.99,0000 0000 0000 0000 000000
2015-09-12 00:06:15,0.04,0.20,0.00,23.67,28.30,31.01,14.28,49.13,998.10,2035.95,3357.10,3194.61,3474.09,600.13,583.97,9.04,0000 0000 0000 0000 000000
2015-09-12 00:11:17,0.03,0.21,0.00,23.66,28.32,30.95,14.24,49.19,998.07,2035.91,3356.21,3194.00,3473.35,600.14,584.01,9.09,0000 0000 0000 0000 000000
2015-09-12 00:16:18,0.04,0.21,0.00,23.67,28.32,30.98,14.27,49.19,998.08,2035.89,3355.40,3193.28,3472.71,599.75,583.61,9.14,0000 0000 0000 0000 000000
2015-09-12 00:21:20,0.01,0.21,0.00,23.71,28.33,31.05,14.21,49.17,998.07,2035.75,3354.45,3192.81,3471.93,599.96,583.72,9.19,0000 0000 0000 0000 000000
2015-09-12 00:26:21,0.04,0.21,0.00,23.73,28.35,31.04,14.31,49.13,998.06,2035.65,3353.49,3192.04,3471.11,600.28,583.97,9.24,0000 0000 0000 0000 000000
2015-09-12 00:31:22,0.03,0.21,0.00,23.75,28.35,31.05,14.26,49.27,998.02,2035.48,3352.70,3191.65,3470.39,600.10,583.82,9.29,0000 0000 0000 0000 000000
2015-09-12 00:36:24,0.01,0.21,0.00,23.75,28.37,31.08,14.20,49.16,997.77,2035.20,3351.66,3190.94,3469.60,599.42,582.94,9.34,0000 0000 0000 0000 000000
2015-09-12 00:41:25,0.04,0.21,0.00,23.75,28.37,31.10,14.20,49.17,997.78,2035.12,3350.62,3190.13,3468.82,599.85,583.36,9.39,0000 0000 0000 0000 000000
2015-09-12 00:46:26,0.03,0.22,0.00,23.77,28.40,31.12,14.21,49.46,997.83,2035.07,3349.69,3189.61,3467.96,599.67,583.19,9.44,0000 0000 0000 0000 000000
2015-09-12 00:51:27,0.03,0.22,0.00,23.78,28.40,31.12,14.28,49.47,997.66,2035.03,3348.65,3188.98,3467.07,600.49,583.84,9.49,0000 0000 0000 0000 000000
2015-09-12 00:56:28,0.05,0.22,0.00,23.77,28.42,31.17,14.21,49.23,997.60,2035.01,3347.63,3188.17,3466.24,600.16,583.47,9.54,0000 0000 0000 0000 000000
2015-09-12 01:01:30,0.05,0.22,0.00,23.79,28.43,31.19,14.27,49.44,997.60,2035.01,3346.49,3187.49,3465.35,600.20,583.53,9.59,0000 0000 0000 0000 000000
2015-09-12 01:06:31,0.04,0.23,0.00,23.81,28.45,31.21,14.30,49.25,997.58,2035.00,3345.35,3186.81,3464.42,600.46,583.80,9.64,0000 0000 0000 0000 000000
2015-09-12 01:11:32,0.04,0.23,0.00,23.82,28.46,31.19,14.34,49.42,997.57,2035.00,3344.41,3186.01,3463.55,600.06,583.10,9.69,0000 0000 0000 0000 000000
2015-09-12 01:16:33,0.05,0.23,0.00,23.82,28.48,31.24,14.25,49.33,997.57,2035.00,3343.22,3185.19,3462.57,599.90,583.15,9.74,0000 0000 0000 0000 000000
2015-09-12 01:21:35,0.04,0.23,0.00,23.83,28.50,31.24,14.30,49.36,997.57,2034.99,3342.23,3184.63,3461.77,600.10,583.27,9.80,0000 0000 0000 0000 000000
2015-09-12 01:26:36,0.03,0.24,0.00,23.84,28.50,31.26,14.28,49.31,997.57,2034.97,3341.14,3183.99,3460.94,600.10,583.29,9.85,0000 0000 0000 0000 000000
2015-09-12 01:31:37,0.05,0.24,0.00,23.86,28.52,31.26,14.20,49.39,997.55,2034.97,3340.03,3183.20,3460.03,599.72,582.89,9.90,0000 0000 0000 0000 000000
2015-09-12 01:36:39,0.05,0.24,0.00,23.85,28.52,31.33,14.22,49.26,997.42,2034.96,3338.92,3182.52,3459.11,599.65,582.85,9.95,0000 0000 0000 0000 000000
2015-09-12 01:41:40,0.03,0.24,0.00,23.87,28.54,31.43,14.29,49.31,997.20,2034.95,3337.89,3181.94,3458.27,600.42,583.36,10.00,0000 0000 0000 0000 000000
2015-09-12 01:46:41,0.05,0.25,0.00,23.88,28.55,31.43,14.34,49.42,997.14,2034.93,3336.84,3181.13,3457.45,600.11,582.99,10.05,0000 0000 0000 0000 000000
2015-09-12 01:51:42,0.05,0.25,0.00,23.90,28.56,31.42,14.21,49.37,997.09,2034.86,3335.75,3180.40,3456.57,599.72,582.56,10.10,0000 0000 0000 0000 000000
2015-09-12 01:56:43,0.04,0.25,0.00,23.91,28.57,31.41,14.25,49.47,997.09,2034.82,3334.58,3179.79,3455.71,599.74,582.54,10.15,0000 0000 0000 0000 000000
2015-09-12 02:01:45,0.03,0.25,0.00,23.92,28.57,31.44,14.20,49.25,997.09,2034.70,3333.48,3179.02,3454.75,599.96,582.73,10.20,0000 0000 0000 0000 000000
2015-09-12 02:06:46,0.02,0.25,0.00,23.94,28.60,31.47,14.25,49.32,997.09,2034.33,3332.32,3178.16,3453.75,600.08,582.83,10.25,0000 0000 0000 0000 000000
2015-09-12 02:11:47,0.05,0.25,0.00,23.95,28.60,31.41,14.25,49.33,997.07,2034.17,3331.02,3177.33,3452.72,599.76,582.47,10.30,0000 0000 0000 0000 000000
2015-09-12 02:16:48,0.05,0.26,0.00,23.97,28.61,31.51,14.27,49.51,997.04,2034.03,3329.68,3176.41,3451.59,599.70,582.40,10.35,0000 0000 0000 0000 000000
2015-09-12 02:21:50,0.05,0.26,0.00,23.97,28.62,31.55,14.26,49.32,996.88,2034.02,3328.52,3175.67,3450.53,600.23,582.77,10.40,0000 0000 0000 0000 000000
2015-09-12 02:26:51,0.05,0.26,0.00,23.98,28.64,31.56,14.27,49.30,996.83,2034.01,3327.19,3174.82,3449.44,600.32,582.81,10.45,0000 0000 0000 0000 000000
2015-09-12 02:31:52,0.05,0.27,0.00,24.00,28.65,31.58,14.22,49.36,996.65,2034.00,3325.89,3173.93,3448.32,599.83,582.20,10.50,0000 0000 0000 0000 000000
2015-09-12 02:36:53,0.05,0.27,0.00,24.02,28.66,31.58,14.25,49.31,996.61,2034.00,3324.66,3173.07,3447.29,600.13,582.32,10.55,0000 0000 0000 0000 000000
2015-09-12 02:41:55,0.05,0.27,0.00,24.03,28.67,31.60,14.21,49.40,996.60,2034.00,3323.45,3172.27,3446.28,599.85,582.24,10.60,0000 0000 0000 0000 000000
2015-09-12 02:46:56,0.05,0.27,0.00,24.05,28.69,31.61,14.25,49.34,996.60,2034.00,3322.00,3171.36,3445.13,600.26,582.47,10.65,0000 0000 0000 0000 000000
2015-09-12 02:51:57,0.06,0.28,0.00,24.06,28.70,31.63,14.24,49.27,996.57,2034.00,3320.61,3170.49,3443.99,600.31,582.54,10.70,0000 0000 0000 0000 000000
2015-09-12 02:56:59,0.05,0.28,0.00,24.09,28.71,31.64,14.25,49.28,996.45,2034.00,3319.42,3169.72,3442.94,599.97,582.05,10.75,0000 0000 0000 0000 000000
2015-09-12 03:02:00,0.04,0.28,0.00,24.12,28.72,31.67,14.29,49.42,996.21,2033.98,3318.23,3168.96,3441.97,599.75,581.63,10.80,0000 0000 0000 0000 000000
2015-09-12 03:07:01,0.05,0.29,0.00,24.14,28.74,31.65,14.24,49.14,996.12,2033.97,3317.05,3168.13,3440.98,600.24,581.99,10.85,0000 0000 0000 0000 000000
2015-09-12 03:12:03,0.05,0.29,0.00,24.17,28.75,31.66,14.13,49.14,996.11,2033.93,3315.99,3167.31,3440.04,599.67,581.48,10.90,0000 0000 0000 0000 000000
2015-09-12 03:17:04,0.04,0.29,0.00,24.20,28.76,31.68,14.23,49.25,996.11,2033.90,3314.89,3166.72,3439.14,599.94,581.60,10.95,0000 0000 0000 0000 000000
2015-09-12 03:22:05,0.03,0.29,0.00,24.21,28.77,31.71,14.16,49.20,996.11,2033.79,3313.88,3165.99,3438.25,599.88,581.51,11.00,0000 0000 0000 0000 000000
2015-09-12 03:27:07,0.04,0.29,0.00,24.22,28.79,31.69,14.22,49.29,996.11,2033.67,3313.00,3165.36,3437.60,599.91,581.52,11.05,0000 0000 0000 0000 000000
2015-09-12 03:32:08,-0.02,0.29,0.00,24.24,28.80,31.72,14.17,49.19,996.08,2033.16,3312.11,3164.84,3436.77,600.21,581.76,11.10,0000 0000 0000 0000 000000
2015-09-12 03:37:09,0.05,0.30,0.00,24.27,28.82,31.72,14.22,49.42,995.95,2033.14,3311.34,3164.07,3436.02,599.78,581.22,11.15,0000 0000 0000 0000 000000
2015-09-12 03:42:10,0.03,0.30,0.00,24.30,28.82,31.71,14.19,49.24,995.72,2033.05,3310.43,3163.68,3435.27,599.87,581.11,11.20,0000 0000 0000 0000 000000
2015-09-12 03:47:12,0.03,0.30,0.00,24.32,28.84,31.72,14.19,49.17,995.67,2033.02,3309.40,3163.00,3434.54,600.07,581.05,11.25,0000 0000 0000 0000 000000
2015-09-12 03:52:13,0.04,0.30,0.00,24.33,28.85,31.74,14.25,49.33,995.63,2033.01,3308.50,3162.33,3433.85,599.96,581.16,11.30,0000 0000 0000 0000 000000
2015-09-12 03:57:15,0.02,0.30,0.00,24.35,28.86,31.73,14.22,49.35,995.63,2033.00,3307.74,3161.94,3433.05,600.37,581.44,11.35,0000 0000 0000 0000 000000
2015-09-12 04:02:16,0.04,0.30,0.00,24.36,28.87,31.74,14.24,49.32,995.62,2033.00,3306.95,3161.21,3432.49,599.76,580.83,11.40,0000 0000 0000 0000 000000
2015-09-12 04:07:17,0.02,0.31,0.00,24.39,28.87,31.75,14.20,49.32,995.62,2033.00,3306.11,3160.93,3431.91,599.80,580.75,11.45,0000 0000 0000 0000 000000
2015-09-12 04:12:19,0.05,0.31,0.00,24.40,28.89,31.74,14.17,49.21,995.61,2033.00,3305.31,3160.17,3431.08,599.78,580.76,11.50,0000 0000 0000 0000 000000
2015-09-12 04:17:19,0.03,0.31,0.00,24.44,28.90,31.73,14.21,49.23,995.62,2032.98,3304.48,3159.83,3430.41,600.26,581.16,11.55,0000 0000 0000 0000 000000
2015-09-12 04:22:21,0.03,0.31,0.00,24.45,28.90,31.74,14.18,49.31,995.62,2032.99,3303.63,3159.08,3429.88,599.44,580.42,11.60,0000 0000 0000 0000 000000
2015-09-12 04:27:22,0.03,0.31,0.00,24.47,28.91,31.76,14.18,49.33,995.61,2032.99,3302.84,3158.72,3429.06,600.04,581.00,11.65,0000 0000 0000 0000 000000
2015-09-12 04:32:23,0.03,0.32,0.00,24.49,28.92,31.76,14.19,49.32,995.61,2032.98,3302.02,3158.03,3428.50,600.21,581.01,11.70,0000 0000 0000 0000 000000
2015-09-12 04:37:24,0.03,0.32,0.00,24.51,28.92,31.75,14.16,49.21,995.54,2032.97,3301.25,3157.70,3427.94,599.98,580.78,11.75,0000 0000 0000 0000 000000
2015-09-12 04:42:26,0.04,0.32,0.00,24.54,28.93,31.77,14.21,49.27,995.40,2032.94,3300.46,3157.03,3427.13,599.96,580.66,11.80,0000 0000 0000 0000 000000
2015-09-12 04:47:27,0.05,0.32,0.00,24.55,28.95,31.77,14.18,49.04,995.26,2032.90,3299.46,3156.52,3426.48,600.12,580.62,11.85,0000 0000 0000 0000 000000
2015-09-12 04:52:28,0.03,0.32,0.00,24.57,28.95,31.76,14.23,49.28,995.21,2032.96,3298.30,3155.94,3425.68,600.13,580.51,11.90,0000 0000 0000 0000 000000
2015-09-12 04:57:30,0.04,0.33,0.00,24.58,28.96,31.79,14.11,49.06,995.17,2032.97,3297.32,3155.10,3424.88,599.56,579.93,11.95,0000 0000 0000 0000 000000
2015-09-12 05:02:31,0.05,0.33,0.00,24.60,28.97,31.79,14.24,49.11,995.17,2032.95,3296.19,3154.42,3423.99,600.42,580.74,12.00,0000 0000 0000 0000 000000
2015-09-12 05:07:32,0.04,0.33,0.00,24.61,28.97,31.79,14.23,49.26,995.15,2032.95,3295.07,3153.81,3423.05,600.05,580.32,12.05,0000 0000 0000 0000 000000
2015-09-12 05:12:33,0.04,0.33,0.00,24.63,28.97,31.79,14.11,49.08,995.16,2032.95,3293.96,3153.05,3422.14,599.80,580.00,12.10,0000 0000 0000 0000 000000
2015-09-12 05:17:35,0.06,0.34,0.00,24.65,28.99,31.79,14.19,49.04,995.40,2032.96,3292.87,3152.32,3421.25,600.05,580.40,12.15,0000 0000 0000 0000 000000
2015-09-12 05:22:36,0.04,0.34,0.00,24.67,29.00,31.80,14.11,49.13,995.52,2032.95,3291.79,3151.66,3420.34,599.60,580.04,12.21,0000 0000 0000 0000 000000
2015-09-12 05:27:37,0.03,0.34,0.00,24.70,29.00,31.81,14.22,49.29,995.48,2032.94,3290.76,3150.99,3419.58,600.20,580.57,12.26,0000 0000 0000 0000 000000
2015-09-12 05:32:39,0.05,0.34,0.00,24.71,29.00,31.81,14.16,49.13,995.50,2032.92,3289.70,3150.20,3418.64,599.78,580.09,12.31,0000 0000 0000 0000 000000
2015-09-12 05:37:40,0.01,0.35,0.00,24.72,29.00,31.81,14.19,49.14,995.60,2032.71,3288.71,3149.54,3417.70,599.90,580.23,12.36,0000 0000 0000 0000 000000
2015-09-12 05:42:41,-0.01,0.35,0.00,24.73,29.02,31.82,14.20,49.38,995.57,2032.31,3287.86,3148.94,3416.82,600.34,580.63,12.41,0000 0000 0000 0000 000000
2015-09-12 05:47:42,0.05,0.35,0.00,24.75,29.02,31.83,14.17,49.36,995.50,2032.04,3286.78,3148.09,3415.80,600.20,580.42,12.46,0000 0000 0000 0000 000000
2015-09-12 05:52:44,0.05,0.35,0.00,24.77,29.02,31.83,14.17,49.67,995.34,2032.03,3285.63,3147.34,3414.77,600.13,580.37,12.51,0000 0000 0000 0000 000000
2015-09-12 05:57:45,0.05,0.35,0.00,24.79,29.03,31.83,14.19,49.53,995.37,2032.00,3284.47,3146.65,3413.72,600.30,580.37,12.56,0000 0000 0000 0000 000000
2015-09-12 06:02:46,0.07,0.35,0.00,24.80,29.05,31.84,14.25,49.67,995.41,2032.00,3282.87,3145.69,3412.55,600.29,580.35,12.61,0000 0000 0000 0000 000000
2015-09-12 06:07:48,0.06,0.36,0.00,24.82,29.05,31.85,14.18,49.70,995.38,2032.00,3281.38,3144.70,3411.39,600.02,580.05,12.66,0000 0000 0000 0000 000000
2015-09-12 06:12:49,0.05,0.36,0.00,24.83,29.05,31.85,14.13,49.60,995.37,2032.00,3279.90,3143.90,3410.33,599.82,579.89,12.71,0000 0000 0000 0000 000000
2015-09-12 06:17:50,0.06,0.36,0.00,24.85,29.06,31.86,14.18,49.52,995.25,2032.00,3278.56,3143.05,3409.25,600.02,579.92,12.76,0000 0000 0000 0000 000000
2015-09-12 06:22:52,0.05,0.37,0.00,24.85,29.07,31.87,14.14,49.52,995.26,2032.00,3277.43,3142.27,3408.39,600.16,579.90,12.81,0000 0000 0000 0000 000000
2015-09-12 06:27:53,0.04,0.37,0.00,24.87,29.07,31.87,14.20,49.67,995.29,2032.00,3276.30,3141.67,3407.43,600.08,579.95,12.86,0000 0000 0000 0000 000000
2015-09-12 06:32:54,0.04,0.37,0.00,24.88,29.07,31.88,14.22,49.82,995.49,2032.00,3275.17,3140.94,3406.59,600.62,580.58,12.91,0000 0000 0000 0000 000000
2015-09-12 06:37:55,0.05,0.38,0.00,24.88,29.07,31.88,14.21,49.63,995.56,2031.99,3273.85,3140.09,3405.60,600.56,580.46,12.96,0000 0000 0000 0000 000000
2015-09-12 06:42:57,0.06,0.38,0.00,24.89,29.08,31.88,14.20,49.62,995.57,2031.99,3272.55,3139.23,3404.55,599.74,579.85,13.01,0000 0000 0000 0000 000000
2015-09-12 06:47:58,0.05,0.38,0.00,24.90,29.09,31.89,14.14,49.63,995.50,2031.99,3271.17,3138.41,3403.47,599.91,579.95,13.06,0000 0000 0000 0000 000000
2015-09-12 06:52:59,0.06,0.38,0.00,24.90,29.10,31.90,14.24,49.65,995.51,2031.99,3269.74,3137.48,3402.31,600.09,580.03,13.11,0000 0000 0000 0000 000000
2015-09-12 06:58:01,0.05,0.39,0.00,24.91,29.10,31.90,14.19,49.62,995.54,2031.98,3268.44,3136.71,3401.31,600.19,580.13,13.16,0000 0000 0000 0000 000000
2015-09-12 07:03:02,0.06,0.39,0.00,24.92,29.10,31.90,14.09,49.55,995.58,2031.98,3266.93,3135.78,3400.15,599.99,580.05,13.21,0000 0000 0000 0000 000000
2015-09-12 07:08:03,0.05,0.39,0.00,24.92,29.10,31.91,14.13,49.33,995.62,2031.98,3265.41,3134.99,3398.95,600.17,580.15,13.26,0000 0000 0000 0000 000000
2015-09-12 07:13:05,0.06,0.40,0.00,24.94,29.10,31.91,14.08,49.23,995.62,2031.99,3263.85,3134.16,3397.77,600.02,579.94,13.31,0000 0000 0000 0000 000000
2015-09-12 07:18:06,0.07,0.40,0.00,24.95,29.10,31.90,14.11,49.42,995.63,2031.98,3262.47,3133.25,3396.54,599.96,579.87,13.36,0000 0000 0000 0000 000000
2015-09-12 07:23:08,0.07,0.40,0.00,24.95,29.10,31.91,14.20,49.32,995.63,2031.98,3260.86,3132.24,3395.36,600.00,579.88,13.41,0000 0000 0000 0000 000000
2015-09-12 07:28:09,0.08,0.41,0.00,24.95,29.10,31.93,14.16,49.31,995.62,2031.99,3259.02,3131.17,3393.90,599.67,579.59,13.46,0000 0000 0000 0000 000000
2015-09-12 07:33:10,0.08,0.41,0.00,24.95,29.10,31.93,14.14,49.33,995.62,2031.97,3257.02,3129.93,3392.39,600.07,579.94,13.51,0000 0000 0000 0000 000000
2015-09-12 07:38:12,0.08,0.42,0.00,24.97,29.10,31.92,14.14,49.35,995.58,2031.99,3255.00,3128.79,3390.96,600.02,579.86,13.56,0000 0000 0000 0000 000000
2015-09-12 07:43:13,0.09,0.42,0.00,24.97,29.10,31.92,14.17,49.36,995.58,2031.97,3252.95,3127.57,3389.49,599.95,579.73,13.61,0000 0000 0000 0000 000000
2015-09-12 07:48:14,0.09,0.43,0.00,24.97,29.10,31.92,14.07,49.23,995.59,2031.93,3250.66,3126.25,3387.77,599.68,579.54,13.66,0000 0000 0000 0000 000000
2015-09-12 07:53:15,0.11,0.43,0.00,24.97,29.10,31.93,14.14,49.27,995.61,2031.95,3248.23,3124.79,3385.99,599.97,579.81,13.71,0000 0000 0000 0000 000000
2015-09-12 07:58:17,0.11,0.44,0.00,24.97,29.10,31.93,14.21,49.27,995.59,2031.94,3245.66,3123.34,3384.04,600.44,580.29,13.76,0000 0000 0000 0000 000000
2015-09-12 08:03:18,0.13,0.44,0.00,24.97,29.10,31.94,14.21,49.48,995.61,2031.96,3242.65,3121.63,3381.92,600.07,580.00,13.81,0000 0000 0000 0000 000000
2015-09-12 08:08:19,0.13,0.45,0.00,24.97,29.10,31.93,14.14,49.34,995.62,2031.96,3239.56,3119.86,3379.63,599.72,579.60,13.86,0000 0000 0000 0000 000000
2015-09-12 08:13:20,0.14,0.46,0.00,24.97,29.10,31.93,14.16,49.33,995.62,2031.97,3236.34,3118.08,3377.28,600.19,579.98,13.91,0000 0000 0000 0000 000000
2015-09-12 08:18:22,0.14,0.46,0.00,24.97,29.10,31.94,14.14,49.41,995.62,2031.96,3232.93,3116.08,3374.84,599.74,579.64,13.96,0000 0000 0000 0000 000000
2015-09-12 08:23:23,0.17,0.47,0.00,24.97,29.10,31.93,14.10,49.23,995.62,2031.98,3228.99,3113.84,3372.16,599.64,579.45,14.01,0000 0000 0000 0000 000000
2015-09-12 08:28:24,0.14,0.48,0.00,24.97,29.09,31.92,14.12,49.32,995.61,2031.99,3225.64,3111.82,3369.59,599.87,579.74,14.06,0000 0000 0000 0000 000000
2015-09-12 08:33:25,0.14,0.49,0.00,24.98,29.08,31.93,14.14,49.26,995.62,2031.98,3222.34,3109.89,3367.15,600.15,579.93,14.11,0000 0000 0000 0000 000000
2015-09-12 08:38:26,0.14,0.49,0.00,24.99,29.08,31.92,14.20,49.29,995.62,2031.97,3219.00,3107.91,3364.60,600.34,580.10,14.16,0000 0000 0000 0000 000000
2015-09-12 08:43:28,0.14,0.50,0.00,24.99,29.07,31.95,14.12,49.39,995.62,2031.99,3215.65,3106.05,3362.20,599.86,579.74,14.21,0000 0000 0000 0000 000000
2015-09-12 08:48:29,0.14,0.51,0.00,24.99,29.07,31.93,14.17,49.40,995.63,2031.98,3212.39,3104.15,3359.75,600.03,579.87,14.26,0000 0000 0000 0000 000000
2015-09-12 08:53:31,0.13,0.52,0.00,24.99,29.07,31.93,14.14,49.49,995.64,2031.96,3209.14,3102.21,3357.36,600.00,579.92,14.31,0000 0000 0000 0000 000000
2015-09-12 08:58:32,0.13,0.52,0.00,24.99,29.07,31.92,14.21,49.45,995.67,2031.94,3205.98,3100.40,3355.00,600.56,580.29,14.36,0000 0000 0000 0000 000000
2015-09-12 09:03:33,0.13,0.53,0.00,25.00,29.07,31.92,14.09,49.23,995.77,2031.95,3203.02,3098.64,3352.83,600.16,580.01,14.41,0000 0000 0000 0000 000000
2015-09-12 09:08:35,0.12,0.54,0.00,24.99,29.07,31.94,14.19,49.33,995.80,2031.97,3200.17,3097.01,3350.83,599.99,579.95,14.46,0000 0000 0000 0000 000000
2015-09-12 09:13:36,0.11,0.54,0.00,24.98,29.07,31.94,14.16,49.39,996.05,2031.95,3197.58,3095.49,3348.83,599.76,579.90,14.52,0000 0000 0000 0000 000000
2015-09-12 09:18:37,0.12,0.55,0.00,24.97,29.07,31.94,14.21,49.42,996.11,2031.98,3194.80,3093.90,3346.96,599.84,579.90,14.57,0000 0000 0000 0000 000000
2015-09-12 09:23:38,0.12,0.55,0.00,24.97,29.07,31.94,14.15,49.26,996.11,2031.99,3191.95,3092.28,3344.91,600.08,580.36,14.62,0000 0000 0000 0000 000000
2015-09-12 09:28:40,0.11,0.56,0.00,24.97,29.06,31.93,14.12,49.40,996.11,2031.99,3189.36,3090.69,3343.08,599.91,580.03,14.67,0000 0000 0000 0000 000000
2015-09-12 09:33:41,0.10,0.57,0.00,24.97,29.05,31.93,14.17,49.38,996.11,2031.99,3186.79,3089.15,3341.16,599.84,580.06,14.72,0000 0000 0000 0000 000000
2015-09-12 09:38:42,0.10,0.57,0.00,24.97,29.05,31.93,14.15,49.26,996.11,2031.99,3184.41,3087.67,3339.38,599.94,580.05,14.77,0000 0000 0000 0000 000000
2015-09-12 09:43:44,0.09,0.58,0.00,24.97,29.05,31.93,14.19,49.20,996.11,2031.98,3182.20,3086.43,3337.68,600.27,580.34,14.82,0000 0000 0000 0000 000000
2015-09-12 09:48:45,0.08,0.58,0.00,24.97,29.05,31.94,14.09,49.38,996.11,2031.99,3180.10,3085.14,3336.12,599.91,580.06,14.87,0000 0000 0000 0000 000000
2015-09-12 09:53:46,0.09,0.59,0.00,24.97,29.05,31.93,14.18,49.24,996.11,2031.98,3178.09,3083.91,3334.68,600.02,580.22,14.92,0000 0000 0000 0000 000000
2015-09-12 09:58:48,0.09,0.59,0.00,24.97,29.05,31.92,14.15,49.21,996.10,2031.98,3176.07,3082.71,3333.22,600.18,580.15,14.97,0000 0000 0000 0000 000000
2015-09-12 10:03:49,0.09,0.59,0.00,24.95,29.05,31.92,14.13,49.38,996.10,2031.98,3173.96,3081.47,3331.62,600.25,580.42,15.02,0000 0000 0000 0000 000000
2015-09-12 10:08:51,0.08,0.60,0.00,24.95,29.04,31.92,14.11,49.33,996.11,2031.98,3172.01,3080.37,3330.26,599.69,579.88,15.07,0000 0000 0000 0000 000000
2015-09-12 10:13:52,0.07,0.60,0.00,24.95,29.03,31.93,14.17,49.48,996.11,2031.98,3170.25,3079.31,3328.88,600.11,580.27,15.12,0000 0000 0000 0000 000000
2015-09-12 10:18:53,0.07,0.61,0.00,24.94,29.02,31.92,14.14,49.48,996.11,2031.97,3168.57,3078.33,3327.64,600.03,580.23,15.17,0000 0000 0000 0000 000000
2015-09-12 10:23:54,0.07,0.61,0.00,24.92,29.02,31.91,14.19,49.51,996.11,2031.98,3166.87,3077.28,3326.62,599.87,580.12,15.22,0000 0000 0000 0000 000000
2015-09-12 10:28:55,0.06,0.61,0.00,24.92,29.02,31.92,14.23,49.56,996.11,2031.98,3165.17,3076.31,3325.39,600.05,580.32,15.27,0000 0000 0000 0000 000000
2015-09-12 10:33:56,0.07,0.62,0.00,24.91,29.02,31.92,14.21,49.45,996.11,2031.96,3163.50,3075.31,3324.09,600.45,580.72,15.32,0000 0000 0000 0000 000000
2015-09-12 10:38:58,0.08,0.62,0.00,24.90,29.02,31.92,14.15,49.40,996.11,2031.95,3161.76,3074.24,3322.80,600.26,580.45,15.37,0000 0000 0000 0000 000000
2015-09-12 10:43:59,0.07,0.62,0.00,24.90,29.02,31.91,14.17,49.51,996.11,2031.96,3160.14,3073.33,3321.68,599.89,580.13,15.42,0000 0000 0000 0000 000000
2015-09-12 10:49:00,0.07,0.63,0.00,24.90,29.02,31.90,14.24,49.43,996.11,2031.97,3158.42,3072.28,3320.43,600.44,580.70,15.47,0000 0000 0000 0000 000000
2015-09-12 10:54:01,0.06,0.63,0.00,24.90,29.02,31.91,14.19,49.49,996.11,2031.95,3156.74,3071.33,3319.26,600.34,580.51,15.52,0000 0000 0000 0000 000000
2015-09-12 10:59:03,0.07,0.64,0.00,24.90,29.02,31.91,14.21,49.52,996.12,2031.94,3154.99,3070.40,3317.94,599.82,580.17,15.57,0000 0000 0000 0000 000000
2015-09-12 11:04:04,0.07,0.64,0.00,24.90,29.02,31.91,14.15,49.54,996.11,2031.96,3153.30,3069.40,3316.69,600.12,580.34,15.62,0000 0000 0000 0000 000000
2015-09-12 11:09:05,0.07,0.64,0.00,24.89,29.02,31.90,14.14,49.42,996.11,2031.95,3151.64,3068.44,3315.59,599.94,580.26,15.67,0000 0000 0000 0000 000000
2015-09-12 11:14:06,0.06,0.65,0.00,24.87,29.02,31.90,14.21,49.37,996.12,2031.93,3150.00,3067.46,3314.42,600.32,580.65,15.72,0000 0000 0000 0000 000000
2015-09-12 11:19:07,0.07,0.65,0.00,24.87,29.01,31.90,14.18,49.49,996.12,2031.94,3148.46,3066.52,3313.27,600.10,580.44,15.77,0000 0000 0000 0000 000000
2015-09-12 11:24:09,0.05,0.65,0.00,24.87,29.00,31.90,14.11,49.41,996.12,2031.91,3146.98,3065.69,3312.15,599.71,580.10,15.82,0000 0000 0000 0000 000000
2015-09-12 11:29:10,0.06,0.66,0.00,24.86,29.00,31.90,14.16,49.45,996.13,2031.94,3145.56,3064.79,3311.20,599.69,580.08,15.87,0000 0000 0000 0000 000000
2015-09-12 11:34:11,0.04,0.66,0.00,24.87,29.00,31.90,14.22,49.54,996.12,2031.90,3144.09,3064.01,3310.12,599.96,580.43,15.92,0000 0000 0000 0000 000000
2015-09-12 11:39:13,0.06,0.66,0.00,24.87,29.00,31.90,14.29,49.73,996.12,2031.89,3142.69,3063.13,3309.13,600.37,580.69,15.97,0000 0000 0000 0000 000000
2015-09-12 11:44:14,0.06,0.67,0.00,24.86,29.00,31.89,14.08,49.53,996.13,2031.91,3141.40,3062.29,3308.14,599.76,580.14,16.02,0000 0000 0000 0000 000000
2015-09-12 11:49:15,0.05,0.67,0.00,24.85,29.00,31.89,14.11,49.47,996.13,2031.91,3140.03,3061.54,3307.23,599.87,580.28,16.07,0000 0000 0000 0000 000000
2015-09-12 11:54:17,0.05,0.67,0.00,24.83,29.00,31.89,14.15,49.48,996.11,2031.86,3138.73,3060.78,3306.24,600.06,580.45,16.12,0000 0000 0000 0000 000000
2015-09-12 11:59:18,0.05,0.68,0.00,24.82,29.00,31.88,14.18,49.49,996.11,2031.89,3137.53,3060.03,3305.37,599.95,580.37,16.17,0000 0000 0000 0000 000000
2015-09-12 12:04:19,0.05,0.68,0.00,24.80,29.00,31.89,14.21,49.55,996.11,2031.90,3136.33,3059.27,3304.52,599.85,580.33,16.22,0000 0000 0000 0000 000000
2015-09-12 12:09:20,0.05,0.68,0.00,24.80,29.00,31.89,14.25,49.64,996.11,2031.93,3135.14,3058.73,3303.72,600.15,580.65,16.27,0000 0000 0000 0000 000000
2015-09-12 12:14:21,0.04,0.68,0.00,24.80,29.00,31.89,14.21,49.53,996.11,2031.93,3134.13,3057.96,3302.82,599.74,580.16,16.32,0000 0000 0000 0000 000000
2015-09-12 12:19:23,0.06,0.69,0.00,24.80,28.99,31.87,14.14,49.48,996.11,2031.94,3132.85,3057.12,3301.82,599.76,580.23,16.37,0000 0000 0000 0000 000000
2015-09-12 12:24:24,0.06,0.69,0.00,24.80,28.98,31.89,14.19,49.59,996.11,2031.92,3131.50,3056.35,3300.84,599.90,580.39,16.42,0000 0000 0000 0000 000000
2015-09-12 12:29:25,0.06,0.69,0.00,24.79,28.97,31.87,14.22,49.78,996.11,2031.95,3130.15,3055.71,3299.88,600.05,580.47,16.47,0000 0000 0000 0000 000000
2015-09-12 12:34:26,0.06,0.70,0.00,24.77,28.97,31.88,14.17,49.59,996.11,2031.92,3128.67,3054.76,3298.81,599.86,580.42,16.52,0000 0000 0000 0000 000000
2015-09-12 12:39:27,0.06,0.70,0.00,24.77,28.97,31.87,14.24,49.52,996.11,2031.92,3127.24,3053.91,3297.77,599.90,580.55,16.57,0000 0000 0000 0000 000000
2015-09-12 12:44:28,0.07,0.70,0.00,24.76,28.97,31.87,14.13,49.67,996.11,2031.97,3125.65,3053.03,3296.75,599.90,580.41,16.62,0000 0000 0000 0000 000000
2015-09-12 12:49:30,0.05,0.71,0.00,24.75,28.96,31.86,14.25,49.77,996.11,2031.97,3124.29,3052.19,3295.84,600.23,580.77,16.67,0000 0000 0000 0000 000000
2015-09-12 12:54:31,0.07,0.71,0.00,24.74,28.95,31.86,14.21,49.68,996.11,2031.95,3122.89,3051.35,3294.67,599.75,580.29,16.72,0000 0000 0000 0000 000000
2015-09-12 12:59:32,0.05,0.71,0.00,24.73,28.95,31.87,14.22,49.65,996.11,2031.96,3121.65,3050.69,3293.87,600.37,581.06,16.77,0000 0000 0000 0000 000000